HXMT

Last updated on Thu Mar 15 2018 21:46:51 GMT+0000 (Coordinated Universal Time)

1 42758U 17034A 18074.17474537 .00000273 00000-0 31092-4 0 9990 2 42758 43.0180 241.4933 0009180 252.3736 82.0721 15.08260057 41229
UTC large
Height (km)
Speed (km/s)
/
Latitude / Longitude
Inclination (degrees)
Orbital Period (minutes)
Azimuth
Elevation
Range (km)
Doppler Factor

Next 0 passes for location: London (51.5072 / 0.1276)

Sorry there are no passes over London.
HXMT